Miscellaneous Local Product
Issued by NWS Hastings, NE

Home | Current Version | Previous Version | Text Only | Print | Product List | Glossary On
Versions: 1 2 3 4 5 6 7 8 9 10 11 12 13 14 15 16 17 18 19 20 21 22 23 24 25 26 27 28 29 30 31 32 33 34 35 36 37 38 39 40 41 42 43 44 45 46 47 48 49 50
000
AXUS43 KGID 051502
MISGRI

GID CWA HOURLY WEATHER ROUNDUP
NATIONAL WEATHER SERVICE HASTINGS NE
1000 AM CDT THU MAY 05 2016

NOTE: "FAIR" INDICATES FEW OR NO CLOUDS BELOW 12,000 FEET WITH NO
SIGNIFICANT WEATHER AND/OR OBSTRUCTIONS TO VISIBILITY.

...SOUTH CENTRAL NEBRASKA...

CITY           SKY/WX    TMP DP  RH WIND       PRES   REMARKS
GRAND ISLAND   SUNNY     65  39  38 SW5       30.12S
HASTINGS       SUNNY     66  40  38 CALM      30.12R
KEARNEY        SUNNY     63  39  42 S7        30.13S
ORD            SUNNY     63  44  50 S8        30.10S
YORK           SUNNY     64  37  36 W5        30.12S
AURORA         SUNNY     66  36  32 W5        30.11S
HOLDREGE       SUNNY     63  36  35 S6        30.12S
HEBRON         SUNNY     60  44  54 CALM      30.12S

...NEBRASKA PANHANDLE...

CITY           SKY/WX    TMP DP  RH WIND       PRES   REMARKS
CHADRON        SUNNY     68  45  43 W10       30.00S
ALLIANCE       SUNNY     65  47  52 S10       30.05F
SCOTTSBLUFF    CLOUDY    64  45  49 SE6       30.06S
SIDNEY         CLOUDY    69  40  34 SW15      30.10R

...WESTERN AND NORTH CENTRAL NEBRASKA...

CITY           SKY/WX    TMP DP  RH WIND       PRES   REMARKS
VALENTINE      SUNNY     68  41  37 SW10      30.05F
AINSWORTH      SUNNY     70  45  41 S12       30.07S
ONEILL         SUNNY     65  44  45 SW8       30.09R
BROKEN BOW     SUNNY     65  43  44 SW7       30.10S
IMPERIAL       SUNNY     66  47  50 S8        30.10F
NORTH PLATTE   SUNNY     62  48  60 VRB3      30.10F
MCCOOK         SUNNY     61  48  62 CALM      30.11F

...EASTERN NEBRASKA...

CITY           SKY/WX    TMP DP  RH WIND       PRES   REMARKS
NORFOLK        SUNNY     63  44  50 CALM      30.09S
SO SIOUX CITY  SUNNY     61  45  55 CALM      30.08S
TEKAMAH        SUNNY     59  42  53 CALM      30.09R
COLUMBUS       SUNNY     63  39  42 W6        30.11S
ALBION         SUNNY     65  40  40 SW8       30.10S
OMAHA EPPLEY   MOSUNNY   61  43  51 CALM      30.09S
OFFUTT AFB     SUNNY     61  45  56 VRB3      30.08S
MILLARD        SUNNY     61  42  50 CALM      30.09R
LINCOLN        SUNNY     65  42  43 CALM      30.11S
NEBRASKA CITY  SUNNY     62  42  46 CALM      30.10R
BEATRICE       SUNNY     63  43  48 NW6       30.12R
FALLS CITY     SUNNY     62  46  55 CALM      30.09R

...NORTHERN KANSAS...

CITY           SKY/WX    TMP DP  RH WIND       PRES   REMARKS
GOODLAND       SUNNY     67  44  43 S17       30.11F
HILL CITY      SUNNY     63  47  55 CALM      30.13F
NORTON         SUNNY     66  45  45 S5        30.12S
PHILLIPSBURG   SUNNY     63  45  51 CALM      30.13S
SMITH CENTER   SUNNY     63  43  48 CALM      30.13F
BELOIT         SUNNY     59  36  41 CALM      30.13S
HAYS           SUNNY     66  45  45 SW3       30.13S
RUSSELL        SUNNY     65  48  54 CALM      30.12R
CONCORDIA      SUNNY     65  38  36 CALM      30.12R
SALINA         SUNNY     64  45  49 NW3       30.14R
TOPEKA         SUNNY     63  46  54 W8        30.10R



USA.gov is the U.S. government's official web portal to all federal, state and local government web resources and services.